Regional Weather Roundup
Issued by NWS Raleigh/Durham, NC

Home | Current Version | Previous Version | Text Only | Print | Product List | Glossary On
Versions: 1 2 3 4 5 6 7 8 9 10 11 12 13 14 15 16 17 18 19 20 21 22 23 24 25 26 27
000
ASUS42 KRAH 230210
RWRRAH
NORTH CAROLINA WEATHER ROUNDUP
NATIONAL WEATHER SERVICE RALEIGH NC
1000 PM EDT TUE AUG 22 2017

NOTE: "FAIR" INDICATES FEW OR NO CLOUDS BELOW 12,000 FEET WITH NO
SIGNIFICANT WEATHER AND/OR OBSTRUCTIONS TO VISIBILITY.

NCZ001-053-055-056-065-067-230300-
WESTERN NORTH CAROLINA

CITY           SKY/WX    TMP DP  RH WIND       PRES   REMARKS
ASHEVILLE      CLEAR     75  68  78 SW5       30.05S
JEFFERSON      PTCLDY    72  66  83 CALM      30.10S
MORGANTON      PTCLDY    73  72  96 CALM      30.02S
HICKORY        CLEAR     79  72  79 S6        29.98S
RUTHERFORDTON  PTCLDY    80  71  74 CALM      29.99S
MOUNT AIRY     PTCLDY    80  72  75 CALM      30.00R
BOONE          CLEAR     70  64  83 CALM      30.11S
$$

NCZ021-022-025-041-071-084-088-230300-
CENTRAL NORTH CAROLINA

CITY           SKY/WX    TMP DP  RH WIND       PRES   REMARKS
CHARLOTTE      PTCLDY    80  74  81 S6        29.98R
GREENSBORO     CLEAR     80  71  74 SW9       29.96R
WINSTON-SALEM  CLEAR     82  70  66 SW5       29.98R
RALEIGH-DURHAM PTCLDY    85  72  65 SW13      29.94S
FORT BRAGG     CLEAR     82  72  71 S6        29.96R
FAYETTEVILLE   CLEAR     81  74  79 S8        29.97R
BURLINGTON     CLEAR     81  70  69 SW5       29.95R
LAURINBURG     PTCLDY    80  75  84 S9        29.98S
$$

NCZ011-015-027-028-043-044-047-080-103-230300-
NORTHEASTERN NORTH CAROLINA

CITY           SKY/WX    TMP DP  RH WIND       PRES   REMARKS
ROCKY MT-WILSO CLEAR     79  75  87 S6        29.94S
GREENVILLE     CLEAR     81  77  89 S8        29.98S
WASHINGTON     CLEAR     80  76  87 S5        29.97S
ELIZABETH CITY CLEAR     81  77  88 S10       29.94F
MANTEO         CLEAR     82  76  83 SW15      29.97S
CAPE HATTERAS  CLEAR     83  78  85 SW12      29.99S
$$

NCZ078-087-090-091-093-098-101-230300-
SOUTHEASTERN NORTH CAROLINA

CITY           SKY/WX    TMP DP  RH WIND       PRES   REMARKS
LUMBERTON      CLEAR     77  74  90 S3        29.98R
GOLDSBORO      CLEAR     81  81 100 S5        29.96R
KINSTON        CLEAR     81  75  83 S10       29.97S
KENANSVILLE    PTCLDY    79  73  83 SW3       29.98R
NEW BERN       CLEAR     79  77  94 S10       29.99R
CHERRY POINT   CLEAR     81  75  82 S7        29.99S
BEAUFORT       PTCLDY    82  77  84 SW16      29.99S
JACKSONVILLE   PTCLDY    79  77  94 SW6       29.98R
WILMINGTON     CLEAR     80  75  84 S7        29.99S
$$





USA.gov is the U.S. government's official web portal to all federal, state and local government web resources and services.